STARLINK-1188 (45220 NORAD) Tracking and Keplerian Element Data

This shows tracking and keplerian element data for the satellite.

Feedback or suggestion? Click here.




ElementValue
Catalog45220
NameSTARLINK-1188
Epoch Orbit2240
Epoch Day190.25001157
Epoch Year2020
RAAN301.1723
Inclination52.9999
Eccentricity0.0001472
Argument of Perigee105.1529
Mean Anonmoly59.178
Mean Motion15.05570075
Decay Rate0.00029571
L11 45220U 20012AU 20190.25001157 .00029571 00000-0 20407-2 0 9990
L22 45220 52.9999 301.1723 0001472 105.1529 59.1780 15.05570075 22405

Live tracking and technical data element details for STARLINK-1188 (NORAD 45220). STARLINK-1188 can be tracked NOW for your location showing map with azimuth and elevation plus other details from your city location.

Track the satellite on the map from your city or location and see movement details for azimuth, elevation, latitude, longitude, range, height, and movement on the map or in text.







IsCatalogInMostPopularTable: catalog: 45220, numindb: 34
Update: records affected: 1



GetName: 45220 STARLINK-1188

Hit Count: updated at: Thu, 09 Jul 2020 00:53:00 GMT